ROMMA est une association bénévole à but non lucratif. Votre soutien est indispensable : ADHERER à ROMMA ou FAIRE un DON

La Beaume - (05, Hautes Alpes)

Buëch (820 m)   Longitude: 5° 40' 9'' E   Latitude: 44° 32' 3'' N Station partenaire n°75
 

Détail journalier du     <<     >>

Température Precipitation Humidité Pression Vent Dir Rafale Dir. rafale Ensol.
Heure (°C) (mm) (%) (hPa) (km/h) (km/h) (min)
01:00 11.507110134SO10SO0
02:00 10.507410132SO5NO0
03:00 9.707810132NO5SO0
04:00 9.207910122SO5OSO0
05:00 8.008110122O5O0
06:00 8.20801012000
07:00 7.3084101205ONO0
08:00 7.3084101203NNE0
09:00 10.6077101203NNE30
10:00 13.906510121NNE5NNE60
11:00 17.705310122ENE6ESE60
12:00 20.204610123SE10ESE60
13:00 21.604510118SE16ESE60
14:00 23.2042101010ESE23E60
15:00 24.0040100911ESE23E60
16:00 23.9041100813SE24SE60
17:00 23.3045100814SE24ESE60
18:00 22.0050100814SE24ESE60
19:00 20.6055100810SSE19SSE30
20:00 19.006010076SSO15SSO0
21:00 13.311.88810099NO64OSO0
22:00 13.81.485101010O26NNO0
23:00 12.95.49110093SO15O0
minuit 12.60.893101003SO0

Graphique du 01-10-2019

 

Serveur OMMA